K6NC Weather Reports


time (UTC)temp
F
wind
direction
speed
knots
gust
knots
rain 1hr
in
rain 24hr
in
rain mn
in
humidity
%
barometer
mb
20260507004013 73 0 0.9 5.2 0.00 0.00 0.00 59 1016.3
20260507003512 73 0 1.7 5.2 0.00 0.00 0.00 60 1016.4
20260507003028 73 295 1.7 4.3 0.00 0.00 0.00 61 1016.4
20260507002512 73 348 0.9 3.5 0.00 0.00 0.00 62 1016.3
20260507002017 74 334 1.7 4.3 0.00 0.00 0.00 59 1016.4
20260507001530 74 286 0.9 7.0 0.00 0.00 0.00 60 1016.4
20260507001012 73 324 2.6 7.0 0.00 0.00 0.00 62 1016.4
20260507000512 73 68 0.9 5.2 0.00 0.00 0.00 60 1016.4
20260507000030 74 338 0.9 5.2 0.00 0.00 0.00 59 1016.4
20260506235514 74 51 2.6 5.2 0.00 0.00 0.00 59 1016.5
20260506235013 74 18 1.7 5.2 0.00 0.00 0.00 60 1016.5
20260506234528 74 336 0.0 5.2 0.00 0.00 0.00 60 1016.6
20260506234011 74 76 0.9 5.2 0.00 0.00 0.00 59 1016.6
20260506233514 74 0 0.0 5.2 0.00 0.00 0.00 60 1016.6
20260506233030 73 313 1.7 7.0 0.00 0.00 0.00 61 1016.7
20260506232511 73 38 1.7 7.0 0.00 0.00 0.00 60 1016.7
20260506232013 73 30 1.7 7.0 0.00 0.00 0.00 62 1016.8
20260506231528 74 22 0.0 3.5 0.00 0.00 0.00 59 1016.7
20260506231013 74 0 0.9 3.5 0.00 0.00 0.00 60 1016.7
20260506230512 73 350 0.0 7.0 0.00 0.00 0.00 59 1017.0
20260506230028 72 36 1.7 7.0 0.00 0.00 0.00 62 1017.1
20260506225513 73 335 2.6 8.7 0.00 0.00 0.00 60 1017.2
20260506225015 73 332 1.7 8.7 0.00 0.00 0.00 63 1017.3
20260506224530 73 67 3.5 8.7 0.00 0.00 0.00 62 1017.3
20260506224014 73 0 0.9 7.8 0.00 0.00 0.00 62 1017.4
20260506223515 72 65 3.5 8.7 0.00 0.00 0.00 64 1017.5
20260506223029 73 34 0.9 8.7 0.00 0.00 0.00 62 1017.5
20260506222512 73 82 1.7 5.2 0.00 0.00 0.00 58 1017.6
20260506222013 74 235 0.9 5.2 0.00 0.00 0.00 57 1017.7
20260506221529 72 113 2.6 7.0 0.00 0.00 0.00 59 1017.8
20260506221014 71 0 1.7 7.0 0.00 0.00 0.00 60 1017.9
20260506220514 72 355 0.9 7.8 0.00 0.00 0.00 62 1017.9
20260506220037 73 236 4.3 8.7 0.00 0.00 0.00 58 1017.9
20260506215512 74 261 0.9 8.7 0.00 0.00 0.00 60 1018.0
20260506215012 72 298 4.3 8.7 0.00 0.00 0.00 63 1018.0
20260506214528 71 276 0.0 5.2 0.00 0.00 0.00 60 1018.0
20260506214012 71 28 1.7 7.0 0.00 0.00 0.00 64 1018.2
20260506213511 72 351 1.7 7.0 0.00 0.00 0.00 63 1018.1
20260506213032 72 0 0.9 7.8 0.00 0.00 0.00 61 1018.3
20260506212514 71 24 2.6 7.8 0.00 0.00 0.00 62 1018.3
20260506212012 71 322 2.6 7.0 0.00 0.00 0.00 66 1018.4
20260506211532 70 323 0.9 7.0 0.00 0.00 0.00 65 1018.4
20260506211012 69 332 2.6 5.2 0.00 0.00 0.00 64 1018.5
20260506210513 70 24 1.7 7.0 0.00 0.00 0.00 64 1018.6
20260506210032 70 355 2.6 7.0 0.00 0.00 0.00 65 1018.6
20260506205513 70 355 2.6 7.8 0.00 0.00 0.00 63 1018.6
20260506205011 72 71 1.7 7.8 0.00 0.00 0.00 61 1018.7
20260506204529 74 0 0.9 7.8 0.00 0.00 0.00 58 1018.8
20260506204017 73 327 4.3 7.8 0.00 0.00 0.00 62 1018.8
20260506203512 71 317 2.6 7.8 0.00 0.00 0.00 63 1019.0
20260506203029 70 24 2.6 7.8 0.00 0.00 0.00 66 1019.1
20260506202513 70 30 2.6 7.8 0.00 0.00 0.00 62 1019.2
20260506202017 72 294 1.7 7.0 0.00 0.00 0.00 63 1019.2
20260506201530 72 317 2.6 7.0 0.00 0.00 0.00 65 1019.3
20260506201013 70 92 2.6 6.1 0.00 0.00 0.00 66 1019.3
20260506200512 69 355 0.9 7.0 0.00 0.00 0.00 69 1019.3
20260506200027 68 18 1.7 9.6 0.00 0.00 0.00 66 1019.4
20260506195512 70 9 2.6 9.6 0.00 0.00 0.00 66 1019.4
20260506195011 69 337 1.7 7.0 0.00 0.00 0.00 70 1019.4
20260506194530 68 319 2.6 7.0 0.00 0.00 0.00 65 1019.5
20260506194013 69 268 1.7 7.0 0.00 0.00 0.00 66 1019.5
20260506193513 69 302 1.7 6.1 0.00 0.00 0.00 70 1019.6
20260506193030 67 336 0.9 5.2 0.00 0.00 0.00 70 1019.7
20260506192513 68 53 1.7 5.2 0.00 0.00 0.00 66 1019.7
20260506192013 69 341 2.6 5.2 0.00 0.00 0.00 68 1019.7
20260506191528 68 278 3.5 6.1 0.00 0.00 0.00 70 1019.7
20260506191014 68 16 0.9 6.1 0.00 0.00 0.00 68 1019.9
20260506190517 69 360 1.7 6.1 0.00 0.00 0.00 67 1019.9
20260506190028 69 43 1.7 6.1 0.00 0.00 0.00 67 1019.8
20260506185512 68 337 1.7 4.3 0.00 0.00 0.00 68 1019.9
20260506185013 69 302 1.7 6.1 0.00 0.00 0.00 69 1019.8
20260506184529 68 291 1.7 6.1 0.00 0.00 0.00 68 1019.8
20260506184020 68 310 2.6 6.1 0.00 0.00 0.00 74 1020.0
20260506183514 68 82 1.7 6.1 0.00 0.00 0.00 70 1020.0
20260506183028 67 15 1.7 6.1 0.00 0.00 0.00 71 1020.1
20260506182513 68 285 3.5 6.1 0.00 0.00 0.00 70 1020.1
20260506182014 67 279 2.6 6.1 0.00 0.00 0.00 75 1020.2
20260506181530 67 317 1.7 6.1 0.00 0.00 0.00 75 1020.2
20260506181013 66 246 1.7 6.1 0.00 0.00 0.00 72 1020.1
20260506180513 66 0 0.9 5.2 0.00 0.00 0.00 72 1020.2
20260506180030 65 287 1.7 5.2 0.00 0.00 0.00 77 1020.2
20260506175515 65 25 1.7 5.2 0.00 0.00 0.00 74 1020.1
20260506175017 64 315 0.9 5.2 0.00 0.00 0.00 76 1020.2
20260506174527 64 0 0.9 3.5 0.00 0.00 0.00 77 1020.3
20260506174012 64 288 2.6 3.5 0.00 0.00 0.00 78 1020.2
20260506173514 64 0 0.0 3.5 0.00 0.00 0.00 74 1020.2
20260506173033 64 292 0.9 4.3 0.00 0.00 0.00 77 1020.3
20260506172512 64 248 0.9 6.1 0.00 0.00 0.00 78 1020.2
20260506172013 63 294 2.6 6.1 0.00 0.00 0.00 79 1020.2
20260506171530 63 231 3.5 6.1 0.00 0.00 0.00 80 1020.2
20260506171012 62 279 1.7 3.5 0.00 0.00 0.00 79 1020.2
20260506170512 62 0 0.9 3.5 0.00 0.00 0.00 79 1020.2
20260506170028 62 300 0.9 3.5 0.00 0.00 0.00 77 1020.3
20260506165514 62 285 1.7 5.2 0.00 0.00 0.00 79 1020.3
20260506165014 61 0 1.7 6.1 0.00 0.00 0.00 79 1020.3
20260506164528 61 276 2.6 6.1 0.00 0.00 0.00 79 1020.3
20260506164011 61 275 1.7 3.5 0.00 0.00 0.00 80 1020.3
20260506163511 61 254 0.9 4.3 0.00 0.00 0.00 80 1020.2
20260506163032 60 273 2.6 4.3 0.00 0.00 0.00 81 1020.2
20260506162513 60 190 2.6 4.3 0.00 0.00 0.00 81 1020.2
20260506162016 60 223 0.9 3.5 0.00 0.00 0.00 83 1020.2
20260506161534 60 216 0.9 3.5 0.00 0.00 0.00 81 1020.2
20260506161013 59 211 1.7 3.5 0.00 0.00 0.00 81 1020.2
20260506160517 59 241 1.7 3.5 0.00 0.00 0.00 81 1020.2
20260506160031 59 273 1.7 3.5 0.00 0.00 0.00 81 1020.3
20260506155514 59 254 1.7 3.5 0.00 0.00 0.00 81 1020.2
20260506155012 59 246 2.6 3.5 0.00 0.00 0.00 81 1020.1
20260506154532 59 240 0.9 3.5 0.00 0.00 0.00 82 1020.2
20260506154013 59 267 1.7 3.5 0.00 0.00 0.00 82 1020.2
20260506153511 58 277 1.7 5.2 0.00 0.00 0.00 82 1020.1
20260506153028 58 252 2.6 5.2 0.00 0.00 0.00 82 1020.2
20260506152512 58 210 2.6 4.3 0.00 0.00 0.00 82 1020.1
20260506152013 58 226 2.6 4.3 0.00 0.00 0.00 83 1020.1
20260506151530 58 180 1.7 4.3 0.00 0.00 0.00 83 1020.1
20260506151015 58 215 1.7 4.3 0.00 0.00 0.00 83 1020.1
20260506150512 58 219 1.7 4.3 0.00 0.00 0.00 84 1020.1
20260506150029 58 202 1.7 4.3 0.00 0.00 0.00 84 1020.1
20260506145510 58 217 1.7 3.5 0.00 0.00 0.00 85 1020.0
20260506145013 57 214 0.9 2.6 0.00 0.00 0.00 85 1020.0
20260506144529 57 190 0.9 2.6 0.00 0.00 0.00 85 1020.1
20260506144012 57 180 0.9 2.6 0.00 0.00 0.00 85 1020.1
20260506143513 57 188 0.9 2.6 0.00 0.00 0.00 85 1020.0
20260506143030 57 178 1.7 2.6 0.00 0.00 0.00 86 1019.9
20260506142513 56 0 0.0 2.6 0.00 0.00 0.00 86 1019.9
20260506142010 56 184 1.7 2.6 0.00 0.00 0.00 86 1019.9
20260506141534 56 0 0.0 3.5 0.00 0.00 0.00 87 1019.8
20260506141012 56 0 0.0 3.5 0.00 0.00 0.00 87 1019.8
20260506140513 56 171 0.0 2.6 0.00 0.00 0.00 87 1019.8
20260506140028 56 0 0.0 0.0 0.00 0.00 0.00 87 1019.7
20260506135512 56 0 0.0 0.0 0.00 0.00 0.00 87 1019.6
20260506135017 56 0 0.0 0.0 0.00 0.00 0.00 87 1019.6
20260506134527 56 0 0.0 0.9 0.00 0.00 0.00 87 1019.5
20260506134012 56 0 0.0 0.9 0.00 0.00 0.00 87 1019.6
20260506133512 56 0 0.0 0.9 0.00 0.00 0.00 87 1019.5
20260506133030 56 0 0.0 0.0 0.00 0.00 0.00 87 1019.5
20260506132514 56 0 0.0 0.0 0.00 0.00 0.00 87 1019.6
20260506132013 56 0 0.0 0.0 0.00 0.00 0.00 86 1019.5
20260506131528 56 0 0.0 0.0 0.00 0.00 0.00 86 1019.4
20260506131013 56 0 0.0 0.9 0.00 0.00 0.00 86 1019.5
20260506130514 56 0 0.0 0.9 0.00 0.00 0.00 86 1019.5
20260506130028 56 0 0.0 0.9 0.00 0.00 0.00 86 1019.4
20260506125513 56 0 0.0 1.7 0.00 0.00 0.00 86 1019.3
20260506125012 56 0 0.0 2.6 0.00 0.00 0.00 86 1019.3
20260506124529 56 191 0.0 3.5 0.00 0.00 0.00 86 1019.3
20260506124013 56 191 0.9 3.5 0.00 0.00 0.00 86 1019.3
20260506123515 56 191 0.9 2.6 0.00 0.00 0.00 86 1019.2
20260506123029 56 0 0.0 0.0 0.00 0.00 0.00 86 1019.2
20260506122513 56 0 0.0 0.0 0.00 0.00 0.00 85 1019.2
20260506122018 56 0 0.0 0.9 0.00 0.00 0.00 85 1019.2
20260506121529 56 0 0.0 0.9 0.00 0.00 0.00 85 1019.2
20260506121014 56 0 0.0 0.9 0.00 0.00 0.00 85 1019.1
20260506120511 56 0 0.0 0.9 0.00 0.00 0.00 85 1019.1
20260506120031 56 0 0.0 0.0 0.00 0.00 0.00 85 1019.1
20260506115516 56 0 0.0 2.6 0.00 0.00 0.00 85 1019.1
20260506115016 56 0 0.0 3.5 0.00 0.00 0.00 85 1019.1
20260506114528 56 161 0.0 3.5 0.00 0.00 0.00 85 1019.0
20260506114013 56 0 0.0 2.6 0.00 0.00 0.00 85 1019.0
20260506113513 56 0 0.0 2.6 0.00 0.00 0.00 85 1018.9
20260506113030 56 0 0.0 0.0 0.00 0.00 0.00 85 1018.9
20260506112513 56 0 0.0 0.0 0.00 0.00 0.00 85 1019.0
20260506112010 56 0 0.0 0.9 0.00 0.00 0.00 85 1018.9
20260506111527 56 0 0.0 3.5 0.00 0.00 0.00 85 1018.9
20260506111012 56 0 0.0 4.3 0.00 0.00 0.00 85 1018.7
20260506110512 56 188 1.7 4.3 0.00 0.00 0.00 85 1018.7
20260506110029 56 173 0.0 4.3 0.00 0.00 0.00 85 1018.7
20260506105512 56 0 0.0 4.3 0.00 0.01 0.00 85 1018.6
20260506105016 56 0 0.0 1.7 0.00 0.01 0.00 85 1018.6
20260506104529 56 0 0.0 1.7 0.00 0.01 0.00 85 1018.6
20260506104016 56 0 0.0 0.9 0.00 0.01 0.00 85 1018.5
20260506103514 56 0 0.0 0.0 0.00 0.01 0.00 85 1018.6
20260506103029 56 0 0.0 0.9 0.00 0.01 0.00 85 1018.6
20260506102514 56 0 0.0 0.9 0.00 0.01 0.00 85 1018.5
20260506102010 57 0 0.0 3.5 0.00 0.01 0.00 85 1018.3
20260506101530 57 0 0.0 3.5 0.00 0.01 0.00 85 1018.3
20260506101014 57 187 0.9 3.5 0.00 0.01 0.00 85 1018.2
20260506100517 57 178 1.7 3.5 0.00 0.01 0.00 85 1018.3
20260506100027 57 193 1.7 3.5 0.00 0.01 0.00 85 1018.3
20260506095512 57 177 0.0 2.6 0.00 0.01 0.00 85 1018.2
20260506095012 57 0 0.9 2.6 0.00 0.01 0.00 85 1018.4
20260506094530 57 216 0.0 2.6 0.00 0.01 0.00 84 1018.2
20260506094012 57 0 0.0 2.6 0.00 0.01 0.00 84 1018.3
20260506093514 57 216 0.9 2.6 0.00 0.01 0.00 84 1018.3
20260506093037 57 0 0.0 2.6 0.00 0.01 0.00 84 1018.3
20260506092513 57 0 0.0 2.6 0.00 0.01 0.00 84 1018.3
20260506092016 57 202 0.0 3.5 0.00 0.01 0.00 84 1018.3
20260506091531 57 202 1.7 3.5 0.00 0.01 0.00 84 1018.3
20260506091014 57 196 0.9 3.5 0.00 0.01 0.00 84 1018.3
20260506090514 57 192 1.7 3.5 0.00 0.01 0.00 84 1018.2
20260506090028 57 218 0.9 3.5 0.00 0.01 0.00 84 1018.2
20260506085513 57 217 1.7 3.5 0.00 0.01 0.00 83 1018.3
20260506085014 57 196 1.7 3.5 0.00 0.01 0.00 83 1018.3
20260506084534 57 215 1.7 3.5 0.00 0.01 0.00 84 1018.2
20260506084012 57 194 1.7 3.5 0.00 0.01 0.00 84 1018.3
20260506083513 57 207 0.9 3.5 0.00 0.01 0.00 84 1018.4
20260506083031 57 194 0.9 2.6 0.00 0.01 0.00 84 1018.4
20260506082513 57 198 0.9 2.6 0.00 0.01 0.00 84 1018.5
20260506082012 57 242 1.7 2.6 0.00 0.01 0.00 85 1018.4
20260506081528 57 187 0.0 1.7 0.00 0.01 0.00 85 1018.4
20260506081012 57 0 0.0 1.7 0.00 0.01 0.00 85 1018.4
20260506080511 57 0 0.0 0.9 0.00 0.01 0.00 85 1018.4
20260506073512 57 0 0.0 0.0 0.00 0.04 0.00 85 1018.1
20260506073029 57 0 0.0 0.0 0.00 0.04 0.00 84 1018.1
20260506072512 57 0 0.0 0.9 0.00 0.04 0.00 84 1018.0
20260506072014 57 0 0.0 1.7 0.00 0.04 0.00 84 1017.9
20260506071530 57 0 0.0 2.6 0.00 0.04 0.00 84 1018.0
20260506071013 57 259 0.0 2.6 0.00 0.04 0.00 84 1017.8
20260506070514 57 259 0.0 2.6 0.00 0.04 0.00 84 1017.8
20260506062512 57 269 2.6 5.2 0.00 0.07 0.04 84 1017.4
20260506062013 57 273 0.9 5.2 0.00 0.07 0.04 84 1017.4
20260506061528 57 288 0.9 5.2 0.00 0.07 0.04 84 1017.4
20260506061012 57 268 0.9 3.5 0.00 0.07 0.04 84 1017.3
20260506060513 57 306 1.7 5.2 0.00 0.07 0.04 84 1017.4
20260506051011 58 259 2.6 6.1 0.00 0.10 0.04 82 1016.8
20260506050512 58 246 3.5 6.1 0.00 0.10 0.04 81 1016.9
20260506045013 59 234 2.6 8.7 0.00 0.15 0.04 80 1016.8
20260506044538 59 262 4.3 8.7 0.00 0.15 0.04 80 1016.7
20260506044012 59 244 3.5 8.7 0.00 0.15 0.04 80 1016.6
20260506043513 60 262 5.2 8.7 0.00 0.15 0.04 79 1016.4
20260506043027 60 261 5.2 8.7 0.00 0.15 0.04 79 1016.4
20260506042512 61 252 5.2 8.7 0.00 0.15 0.04 80 1016.3
20260506042014 61 242 5.2 7.8 0.00 0.15 0.04 81 1016.2
20260506041541 61 237 2.6 5.2 0.00 0.15 0.04 81 1016.2
20260506041017 62 231 1.7 2.6 0.00 0.15 0.04 80 1016.2
20260506040516 62 219 0.9 2.6 0.00 0.15 0.04 80 1016.2
20260506040032 62 226 0.9 2.6 0.00 0.15 0.04 80 1016.2
20260506035512 62 226 0.9 1.7 0.00 0.23 0.04 80 1016.2
20260506035013 62 226 0.0 1.7 0.00 0.23 0.04 80 1016.1
20260506034531 62 226 0.0 2.6 0.00 0.23 0.04 80 1016.0
20260506034015 62 226 0.9 2.6 0.00 0.23 0.04 80 1016.0
20260506033513 62 0 0.0 2.6 0.00 0.23 0.04 80 1015.9
20260506033028 62 235 0.9 3.5 0.00 0.23 0.04 79 1015.9
20260506032514 62 203 0.9 4.3 0.00 0.23 0.04 79 1015.7
20260506032014 62 208 1.7 4.3 0.00 0.23 0.04 80 1015.6
20260506031530 62 225 2.6 4.3 0.00 0.23 0.04 79 1015.6
20260506031014 62 225 1.7 3.5 0.00 0.23 0.04 78 1015.6
20260506030515 62 209 1.7 4.3 0.00 0.23 0.04 78 1015.6
20260506030030 62 215 1.7 4.3 0.00 0.23 0.04 78 1015.5
20260506025513 62 208 1.7 5.2 0.00 0.23 0.04 78 1015.4
20260506025014 62 204 2.6 5.2 0.00 0.23 0.04 78 1015.4
20260506024528 63 207 3.5 6.1 0.00 0.23 0.04 78 1015.3
20260506024019 63 198 3.5 7.0 0.00 0.23 0.04 77 1015.1
20260506023514 63 228 4.3 7.8 0.00 0.23 0.04 76 1015.0
20260506023030 63 203 4.3 7.8 0.00 0.23 0.04 76 1014.9
20260506022513 63 209 3.5 5.2 0.00 0.23 0.04 76 1014.8
20260506022015 63 209 3.5 5.2 0.00 0.23 0.04 76 1014.9
20260506021528 63 193 1.7 5.2 0.00 0.23 0.04 75 1015.0
20260506021018 63 200 3.5 6.1 0.00 0.23 0.04 74 1015.0
20260506020517 64 200 3.5 6.1 0.00 0.23 0.04 74 1015.0
20260506020028 64 186 2.6 6.1 0.00 0.23 0.04 74 1015.0
20260506015513 64 229 3.5 7.0 0.00 0.24 0.04 74 1015.0
20260506015014 64 220 3.5 7.8 0.00 0.24 0.04 73 1014.9
20260506014530 65 224 4.3 7.8 0.00 0.24 0.04 72 1014.9
20260506014014 65 184 2.6 6.1 0.00 0.24 0.04 72 1014.8
20260506013512 65 184 2.6 5.2 0.00 0.24 0.04 73 1014.8
20260506013027 65 0 0.0 7.0 0.00 0.24 0.04 73 1014.8
20260506012512 65 0 0.9 7.0 0.00 0.24 0.04 71 1014.9
20260506012015 65 210 1.7 7.0 0.00 0.24 0.04 70 1014.8
20260506011539 66 192 3.5 7.0 0.00 0.24 0.04 70 1014.8
20260506011017 66 183 2.6 7.0 0.00 0.24 0.04 71 1014.6
20260506010514 65 213 1.7 5.2 0.00 0.24 0.04 72 1014.6
20260506010029 65 188 2.6 5.2 0.00 0.24 0.04 72 1014.6
20260506005515 65 203 2.6 5.2 0.00 0.25 0.04 75 1014.6
20260506005012 65 184 3.5 5.2 0.00 0.25 0.04 73 1014.6
20260506004540 65 255 2.6 5.2 0.00 0.25 0.04 73 1014.6